Вернуться в каталог

COSMOS 2492

GLONASS

АктивенНавигацияMEO
NORAD 39620·PAYLOAD·🇷🇺 Russia

Запущен Mar 23, 2014 с Plesetsk Cosmodrome

Loading…

Ближайшие Пролёты (ближайшие 24 часа)

TLE

СвежийSource: CelesTrak SupGP

Эпоха: Sep 13, 2026, 23:59 UTC

1 39620C 14012A   26256.99979167  .00000000  00000+0  00000+0 0  2560
2 39620  65.2406 310.9136 0012083 307.0549  31.1556  2.13103545    16

Отслеживайте COSMOS 2492 в реальном времени с AllMySat

Download on the App Store